Showing default

COSMOS 2216, 22187

Orbit data source: Space-Track

COSMOS 2216, 22187 is a payload satellite owned by VKS (CIS) in LEO that was launched on Tue, 20 Oct 1992 UTC via a TSIKLON-3 launch vehicle from the Plesetsk Missile And Space Complex (PKMTR). Payload-class satellites include a variety of spacecraft equipped with specific instruments for various scientific and technological missions. These include communications satellites like Starlink; space stations such as the ISS; scientific satellites like the Hubble; Earth observation satellites from companies like Planet Labs, Umbra, and HawkEye 360; GPS; miniature CubeSats for education and research; and military/defense satellites.

Loading next visibility...
Identifier
22187, 1992-068F
Orbit
LEO
Country
Flag of CISCIS
Related business
Manufacturer
NPO PM
Mission
Defense Communications
Bus & Motor
STRELA-3, Unknown motor
Mass
225 kg wet, 225 kg dry
Launch date (UTC)
1992-10-20 (33 years ago)
Launch vehicle
TSIKLON-3
Launch site
Plesetsk Missile And Space Complex (PKMTR)
Object type
Payload
Rocket body
Debris
Shape & HBR
Cyl, 0.8 m
Radar Cross Section
1.257 m², Medium (>0.1 m² and < 1m²)

Expand to show TLE details & history
Last TLE update: 16 hours ago

TLE from 16 hours ago
0 COSMOS 2216
1 22187U 92068F   25310.98977176  .00000020  00000-0  53420-4 0  9990
2 22187  82.5921 125.3701 0004547 283.3609  76.6976 12.62579017522852
Epoch: 2025-11-06T23:45Z
TLE epoch observation values (Epoch: 2025-11-06T23:45:16.280Z)
Latitude
0.00008°
Longitude
82.61211°
Altitude
1,414.234 km
Speed
7.154 km/s
True Right ascension
08h 21m 28s
True Declination
0° 00' 00"
Sunlit
Object was in daylight at epoch
Visualization orbit readout
Latitude
Unknown
Longitude
Unknown
Altitude
Unknown
Speed
Unknown
Apparent Right ascension
Unknown
Apparent Declination
Unknown
Sunlit
N/A
Visualization observer readout
Local Sidereal Time
11:54:10
Azimuth
Unknown
Elevation
Unknown
Doppler factor
Unknown
Orbital elements
Apogee altitude
1,413.178 km
Perigee altitude
1,406.096 km
Semi-major axis
7,787.774 km
Eccentricity
0.00045
Inclination
82.5921°
RAAN
125.3701°
Arg. of periapsis
283.3609°
True anomaly
76.74831°
Mean anomaly
76.6976°
Eccentric anomaly
76.72296°
Mean motion
3.15808 °/min
Orbital period
113.99 mins
BSTAR
0.00005342
Loading maneuver chart data...
Computing Atmospheric mass density...
Loading historical data...
Loading historical data...
Loading historical data...
Loading historical data...
Loading historical data...
Loading historical data...
Loading historical data...

Documentation

Showing up to 5 results
|